| time (UTC) | temp C | wind direction | speed KPH | gust KPH | rain 1hr cm | rain 24hr cm | rain mn cm | humidity % | barometer mb |
| 20260504171518 | 21 | 213 | 6.4 | 16.1 | 0.00 | 0.00 | 0.00 | 53 | 1010.5 |
| 20260504081512 | 8 | 355 | 0.0 | 1.6 | 0.00 | 0.00 | 0.00 | 83 | 1013.7 |
| 20260504044537 | 11 | 261 | 0.0 | 3.2 | 0.00 | 0.00 | 0.00 | 75 | 1015.2 |
| 20260504043037 | 11 | 296 | 0.0 | 3.2 | 0.00 | 0.00 | 0.00 | 74 | 1015.2 |
| 20260504041531 | 11 | 260 | 0.0 | 4.8 | 0.00 | 0.00 | 0.00 | 74 | 1015.6 |
| 20260504040030 | 11 | 269 | 0.0 | 3.2 | 0.00 | 0.00 | 0.00 | 73 | 1015.7 |
| 20260504034628 | 12 | 350 | 0.0 | 3.2 | 0.00 | 0.00 | 0.00 | 72 | 1015.7 |
| 20260504033025 | 12 | 300 | 0.0 | 3.2 | 0.00 | 0.00 | 0.00 | 69 | 1015.6 |
| 20260504031522 | 12 | 5 | 0.0 | 4.8 | 0.00 | 0.00 | 0.00 | 63 | 1015.4 |
| 20260504030020 | 12 | 323 | 0.0 | 4.8 | 0.00 | 0.00 | 0.00 | 62 | 1015.7 |
| 20260504024526 | 12 | 291 | 0.0 | 3.2 | 0.00 | 0.00 | 0.00 | 60 | 1015.6 |
| 20260504023018 | 12 | 255 | 0.0 | 3.2 | 0.00 | 0.00 | 0.00 | 58 | 1015.5 |
| 20260504021515 | 12 | 276 | 1.6 | 4.8 | 0.00 | 0.00 | 0.00 | 58 | 1015.3 |
| 20260504020014 | 13 | 245 | 1.6 | 4.8 | 0.00 | 0.00 | 0.00 | 56 | 1015.0 |
| 20260504014512 | 13 | 288 | 0.0 | 3.2 | 0.00 | 0.00 | 0.00 | 56 | 1014.6 |
| 20260504013012 | 13 | 212 | 0.0 | 3.2 | 0.00 | 0.00 | 0.00 | 55 | 1014.6 |
| 20260504011505 | 13 | 263 | 1.6 | 3.2 | 0.00 | 0.00 | 0.00 | 53 | 1014.8 |
| 20260504010003 | 14 | 318 | 0.0 | 4.8 | 0.00 | 0.00 | 0.00 | 51 | 1014.8 |
| 20260504004600 | 15 | 269 | 0.0 | 3.2 | 0.00 | 0.00 | 0.00 | 50 | 1014.9 |
| 20260504003057 | 15 | 247 | 1.6 | 4.8 | 0.00 | 0.00 | 0.00 | 47 | 1014.9 |
| 20260504001552 | 16 | 185 | 0.0 | 0.0 | 0.00 | 0.00 | 0.00 | 43 | 1014.8 |
| 20260504000113 | 16 | 185 | 0.0 | 3.2 | 0.00 | 0.00 | 0.00 | 41 | 1014.8 |
| 20260503234543 | 17 | 294 | 0.0 | 3.2 | 0.00 | 0.00 | 0.00 | 37 | 1014.8 |
| 20260503233042 | 17 | 261 | 1.6 | 4.8 | 0.00 | 0.00 | 0.00 | 36 | 1014.8 |
| 20260503231536 | 18 | 232 | 3.2 | 12.9 | 0.00 | 0.00 | 0.00 | 33 | 1015.1 |
| 20260503230035 | 17 | 269 | 4.8 | 14.5 | 0.00 | 0.00 | 0.00 | 33 | 1015.2 |
| 20260503224531 | 18 | 263 | 9.7 | 14.5 | 0.00 | 0.00 | 0.00 | 31 | 1015.5 |
| 20260503223030 | 18 | 260 | 11.3 | 19.3 | 0.00 | 0.00 | 0.00 | 31 | 1015.5 |
| 20260503221522 | 18 | 248 | 6.4 | 17.7 | 0.00 | 0.00 | 0.00 | 32 | 1015.5 |
| 20260503220021 | 18 | 234 | 6.4 | 20.9 | 0.00 | 0.00 | 0.00 | 30 | 1015.6 |
| 20260503214514 | 18 | 273 | 6.4 | 20.9 | 0.00 | 0.00 | 0.00 | 31 | 1015.5 |
| 20260503213014 | 18 | 225 | 8.0 | 16.1 | 0.00 | 0.00 | 0.00 | 30 | 1015.5 |
| 20260503211543 | 18 | 231 | 12.9 | 20.9 | 0.00 | 0.00 | 0.00 | 31 | 1015.8 |
| 20260503210038 | 18 | 263 | 8.0 | 19.3 | 0.00 | 0.00 | 0.00 | 32 | 1016.0 |
| 20260503204534 | 18 | 295 | 4.8 | 16.1 | 0.00 | 0.00 | 0.00 | 31 | 1016.0 |
| 20260503203036 | 18 | 295 | 8.0 | 17.7 | 0.00 | 0.00 | 0.00 | 32 | 1016.2 |
| 20260503201528 | 18 | 211 | 8.0 | 17.7 | 0.00 | 0.00 | 0.00 | 30 | 1016.6 |
| 20260503200026 | 18 | 232 | 8.0 | 16.1 | 0.00 | 0.00 | 0.00 | 32 | 1016.9 |
| 20260503194521 | 17 | 165 | 6.4 | 12.9 | 0.00 | 0.00 | 0.00 | 31 | 1017.0 |
| 20260503193021 | 17 | 259 | 9.7 | 17.7 | 0.00 | 0.00 | 0.00 | 33 | 1017.4 |
| 20260503191520 | 17 | 292 | 4.8 | 11.3 | 0.00 | 0.00 | 0.00 | 35 | 1017.6 |
| 20260503190019 | 18 | 173 | 4.8 | 19.3 | 0.00 | 0.00 | 0.00 | 33 | 1018.0 |
| 20260503184518 | 18 | 292 | 4.8 | 27.4 | 0.00 | 0.00 | 0.00 | 32 | 1018.3 |
| 20260503183013 | 17 | 218 | 3.2 | 11.3 | 0.00 | 0.00 | 0.00 | 31 | 1018.5 |
| 20260503181513 | 17 | 241 | 6.4 | 17.7 | 0.00 | 0.00 | 0.00 | 32 | 1018.8 |
| 20260503180012 | 17 | 275 | 4.8 | 12.9 | 0.00 | 0.00 | 0.00 | 32 | 1019.1 |
| 20260503174507 | 17 | 263 | 6.4 | 12.9 | 0.00 | 0.00 | 0.00 | 34 | 1019.3 |
| 20260503173007 | 17 | 35 | 11.3 | 22.5 | 0.00 | 0.00 | 0.00 | 35 | 1019.6 |